Iron Mountain, MI

11:21 PM CDT on June 28, 2017 (GMT -0500)
Ford

Weather History for KIMT - September, 2013

Change the Weather History Date:

Thursday, September 5, 2013

  Actual Average Record
Temperature  
Mean Temperature 56 °F -  
Max Temperature 72 °F 73 °F 91 °F (1998)
Min Temperature 42 °F 50 °F 34 °F (1950)
Degree Days  
Heating Degree Days 8    
Growing Degree Days 6 (Base 50)    
Moisture  
Dew Point 45 °F    
Average Humidity 75    
Maximum Humidity 100    
Minimum Humidity 39    
Precipitation  
Precipitation 0.00 in - - ()
Sea Level Pressure  
Sea Level Pressure 30.27 in    
Wind  
Wind Speed 1 mph (South)    
Max Wind Speed 8 mph    
Max Gust Speed -    
Visibility 7 miles    
Events Fog    
Averages and records for this station are not official NWS values.
T = Trace of Precipitation, MM = Missing Value Source: NWS Daily Summary

Daily Weather History Graph

Daily Weather History Graph

Search for Another Location

Airport or City:

Trip Planner

Search our weather history database for the weather conditions in past years. The results will help you decide how hot, cold, wet, or windy it might be!

Date:

Astronomy

Sep. 05, 2013 Rise Set
Actual Time 6:18 AM CDT 7:22 PM CDT
Civil Twilight 5:48 AM CDT 7:52 PM CDT
Nautical Twilight 5:11 AM CDT 8:29 PM CDT
Astronomical Twilight 4:32 AM CDT 9:07 PM CDT
Moon 6:33 AM CDT (9/5) 7:09 PM CDT (9/5)
Length of Visible Light 14h 04m
Length of Day
13h 03m
New Moon, 0% of the Moon is Illuminated
Sep 5
New Moon
Sep 12
First Quarter
Sep 19
Full
Sep 26
Last Quarter
Oct 4
New

Hourly Weather History & Observations

Time (CDT) Temp. Dew Point Humidity Pressure Visibility Wind Dir Wind Speed Gust Speed Precip Events Conditions
12:54 AM 46.0 °F 43.0 °F 89% 30.22 in 10.0 mi Calm Calm - N/A   Clear
1:54 AM 46.0 °F 44.1 °F 93% 30.24 in 10.0 mi Calm Calm - N/A   Clear
2:39 AM 44.6 °F 42.8 °F 93% 30.24 in 3.0 mi Calm Calm - N/A   Scattered Clouds
2:46 AM 44.6 °F 42.8 °F 93% 30.24 in 1.5 mi Calm Calm - N/A   Mostly Cloudy
2:54 AM 44.1 °F 42.1 °F 93% 30.25 in 0.2 mi Calm Calm - N/A Fog Fog
3:54 AM 45.0 °F 44.1 °F 97% 30.26 in 0.2 mi Calm Calm - N/A Fog Fog
4:54 AM 44.1 °F 43.0 °F 96% 30.27 in 0.2 mi Calm Calm - N/A Fog Fog
5:54 AM 43.0 °F 42.1 °F 97% 30.30 in 0.5 mi Calm Calm - N/A Fog Fog
6:24 AM 42.8 °F 42.8 °F 100% 30.30 in 0.2 mi Calm Calm - N/A Fog Fog
6:54 AM 43.0 °F 42.1 °F 97% 30.32 in 0.2 mi Calm Calm - N/A Fog Fog
7:52 AM 46.4 °F 44.6 °F 93% 30.31 in 1.0 mi Calm Calm - N/A   Mist
7:54 AM 46.9 °F 45.0 °F 93% 30.33 in 1.8 mi Calm Calm - N/A   Mostly Cloudy
7:56 AM 46.4 °F 44.6 °F 93% 30.31 in 3.0 mi Calm Calm - N/A   Mostly Cloudy
8:10 AM 48.2 °F 46.4 °F 93% 30.31 in 10.0 mi Calm Calm - N/A   Scattered Clouds
8:54 AM 54.0 °F 46.0 °F 75% 30.33 in 10.0 mi SE 4.6 mph - N/A   Clear
9:54 AM 57.9 °F 45.0 °F 62% 30.33 in 10.0 mi SSE 4.6 mph - N/A   Clear
10:54 AM 62.1 °F 43.0 °F 50% 30.33 in 10.0 mi Variable 3.5 mph - N/A   Clear
11:54 AM 64.9 °F 45.0 °F 48% 30.32 in 10.0 mi SW 8.1 mph - N/A   Clear
12:54 PM 66.0 °F 44.1 °F 45% 30.31 in 10.0 mi SSE 5.8 mph - N/A   Clear
1:54 PM 69.1 °F 43.0 °F 39% 30.29 in 10.0 mi Calm Calm - N/A   Clear
2:54 PM 69.1 °F 45.0 °F 42% 30.27 in 10.0 mi SW 4.6 mph - N/A   Clear
3:54 PM 71.1 °F 46.0 °F 41% 30.25 in 10.0 mi Variable 6.9 mph - N/A   Clear
4:54 PM 70.0 °F 46.9 °F 44% 30.25 in 10.0 mi South 4.6 mph - N/A   Clear
5:54 PM 70.0 °F 48.0 °F 46% 30.24 in 10.0 mi SSW 3.5 mph - N/A   Clear
6:54 PM 66.0 °F 51.1 °F 59% 30.24 in 10.0 mi SSE 4.6 mph - N/A   Clear
7:54 PM 59.0 °F 52.0 °F 78% 30.24 in 10.0 mi Calm Calm - N/A   Clear
8:54 PM 59.0 °F 51.1 °F 75% 30.23 in 10.0 mi South 6.9 mph - N/A   Clear
9:54 PM 57.0 °F 50.0 °F 77% 30.22 in 10.0 mi South 8.1 mph - N/A   Clear
10:54 PM 55.9 °F 50.0 °F 80% 30.22 in 10.0 mi South 4.6 mph - N/A   Clear
11:54 PM 54.0 °F 48.9 °F 83% 30.21 in 10.0 mi South 4.6 mph - N/A   Clear